Weather History for Sheridan, WY

Change the Weather History Date:

Saturday, October 27, 2012

  Actual Average Record
Temperature  
Mean Temperature 34 °F 42 °F  
Max Temperature 46 °F 56 °F 84 °F (1983)
Min Temperature 21 °F 27 °F 3 °F (1925)
Degree Days  
Heating Degree Days 31 23  
Month to date heating degree days 558 507  
Since 1 July heating degree days 708 810  
Cooling Degree Days 0 0  
Month to date cooling degree days 0 0  
Year to date cooling degree days 664 418  
Moisture  
Dew Point 22 °F    
Average Humidity 63    
Maximum Humidity 88    
Minimum Humidity 37    
Precipitation  
Precipitation 0.00 in 0.04 in 0.55 in (1917)
Month to date precipitation 0.95 1.29  
Year to date precipitation 7.94 12.77  
Snow  
Snow 0.00 in 0.30 in 6.40 in (1971)
Month to date snowfall 4.8  
Since 1 July snowfall 7.6  
Since 1 September snowfall 7.6  
Snow Depth -    
Sea Level Pressure  
Sea Level Pressure 30.14 in    
Wind  
Wind Speed 2 mph (NNE)    
Max Wind Speed 8 mph    
Max Gust Speed 12 mph    
Visibility 10 miles    
Events      
T = Trace of Precipitation, MM = Missing Value Source: NWS Daily Summary

Daily Weather History Graph

Daily Weather History Graph

Search for Another Location

Airport:

Trip Planner

Search our weather history database for the weather conditions in past years. The results will help you decide how hot, cold, wet, or windy it might be!

Date:

Astronomy

Oct. 27, 2012 Rise Set
Actual Time 7:39 AM MDT 6:02 PM MDT
Civil Twilight 7:09 AM MDT 6:33 PM MDT
Nautical Twilight 6:35 AM MDT 7:07 PM MDT
Astronomical Twilight 6:01 AM MDT 7:41 PM MDT
Moon 4:52 PM MDT (10/27) 5:34 AM MDT (10/27)
Length of Visible Light 11h 23m
Length of Day
10h 23m
Waxing Gibbous, 96% of the Moon is Illuminated
Oct 27
Waxing Gibbous
Oct 29
Full
Nov 6
Last Quarter
Nov 13
New
Nov 20
First Quarter

Hourly Weather History & Observations

Time (MDT) Temp. Windchill Dew Point Humidity Pressure Visibility Wind Dir Wind Speed Gust Speed Precip Events Conditions
12:53 AM 24.1 °F - 21.0 °F 88% 30.18 in 10.0 mi Calm Calm - N/A   Scattered Clouds
1:53 AM 23.0 °F 18.4 °F 19.9 °F 88% 30.15 in 10.0 mi South 3.5 mph - N/A   Partly Cloudy
2:53 AM 21.9 °F - 18.0 °F 85% 30.15 in 10.0 mi Calm Calm - N/A   Scattered Clouds
3:53 AM 24.1 °F - 21.0 °F 88% 30.14 in 10.0 mi Calm Calm - N/A   Mostly Cloudy
4:53 AM 24.1 °F 18.2 °F 21.0 °F 88% 30.14 in 10.0 mi NNW 4.6 mph - N/A   Overcast
5:53 AM 26.1 °F - 21.0 °F 81% 30.15 in 10.0 mi Calm Calm - N/A   Overcast
6:53 AM 25.0 °F 20.7 °F 21.9 °F 88% 30.19 in 10.0 mi South 3.5 mph - N/A   Overcast
7:53 AM 26.1 °F - 23.0 °F 88% 30.20 in 10.0 mi Calm Calm - N/A   Overcast
8:53 AM 28.9 °F - 24.1 °F 82% 30.21 in 10.0 mi Calm Calm - N/A   Overcast
9:53 AM 33.1 °F - 25.0 °F 72% 30.19 in 10.0 mi Calm Calm - N/A   Overcast
10:53 AM 37.0 °F - 21.0 °F 52% 30.17 in 10.0 mi Calm Calm - N/A   Scattered Clouds
11:53 AM 42.8 °F 38.6 °F 19.4 °F 39% 30.05 in 10.0 mi East 6.9 mph - N/A   Clear
12:53 PM 45.0 °F - 21.0 °F 39% 30.11 in 10.0 mi Calm Calm - N/A   Mostly Cloudy
1:53 PM 44.1 °F 42.5 °F 19.0 °F 37% 30.10 in 10.0 mi NE 3.5 mph - N/A   Overcast
2:53 PM 44.1 °F 41.5 °F 21.0 °F 40% 30.11 in 10.0 mi North 4.6 mph - N/A   Overcast
3:53 PM 45.0 °F 43.5 °F 21.0 °F 39% 30.10 in 10.0 mi NE 3.5 mph - N/A   Overcast
4:53 PM 43.0 °F - 21.0 °F 42% 30.12 in 10.0 mi Calm Calm - N/A   Overcast
5:53 PM 42.1 °F 39.2 °F 23.0 °F 47% 30.11 in 10.0 mi South 4.6 mph - N/A   Overcast
6:53 PM 39.0 °F 36.8 °F 24.1 °F 55% 30.13 in 10.0 mi ENE 3.5 mph - N/A   Overcast
7:53 PM 36.0 °F 33.3 °F 28.0 °F 73% 30.15 in 10.0 mi NNE 3.5 mph - N/A   Overcast
8:53 PM 33.1 °F 28.7 °F 27.0 °F 78% 30.15 in 10.0 mi West 4.6 mph - N/A   Overcast
9:53 PM 32.0 °F - 26.6 °F 80% 30.05 in 10.0 mi Calm Calm - N/A   Clear
10:53 PM 28.9 °F 25.2 °F 25.0 °F 85% 30.13 in 10.0 mi NW 3.5 mph - N/A   Partly Cloudy
11:53 PM 28.9 °F - 25.0 °F 85% 30.11 in 10.0 mi Calm Calm - N/A   Partly Cloudy